Wind_Speed
9 7 7 8 8 8 7 7 8 8 7 7 5 4 4 3 3 3 3 2 4 5 3 5 5 5 4 4 1 2 5 7 9 9 7 9 11 9 7 9 8 11 12 9 6
12 10 10 11 11 11 9 9 9 9 8 7 6 5 3 3 2 5 3 3 5 4 5 5 4 5 3 2 1 6 5 6 9 11 9 10 13 11 11 8 8 11 14 14 8
14 13 14 13 13 13 12 11 11 10 9 8 7 6 4 4 4 7 5 4 4 4 5 7 7 6 6 1 1 3 4 5 9 10 8 11 11 13 9 7 9 10 12 13 9
16 17 17 15 14 13 13 12 12 12 10 9 8 7 6 5 6 8 5 5 3 1 3 5 6 6 8 7 2 2 5 6 8 9 7 9 10 12 12 12 11 12 11 10 9
20 19 17 15 13 13 14 13 13 12 11 10 9 9 8 6 6 8 7 5 3 2 4 4 4 6 8 8 1 3 6 7 9 9 7 9 10 10 12 13 12 11 13 13 11
17 15 14 14 14 15 16 16 15 13 11 10 9 10 8 7 7 8 8 6 3 3 4 3 3 4 6 6 2 5 6 6 8 7 4 9 8 7 8 9 9 9 12 10 10
17 16 15 16 17 18 17 17 14 13 11 10 9 9 9 8 9 8 8 5 4 5 5 4 4 4 5 3 4 6 8 9 3 3 3 8 9 6 4 6 6 8 7 7 8
19 17 17 15 14 15 14 14 14 13 12 10 9 8 9 6 8 7 7 7 9 8 5 4 4 4 3 3 6 8 10 11 9 3 2 4 8 6 2 5 6 5 7 7 7
17 16 13 12 11 10 11 11 11 11 11 10 9 7 7 6 8 7 8 9 10 9 7 4 3 2 2 4 7 8 12 13 12 8 2 1 5 5 3 3 1 3 7 8 7
15 14 13 11 10 9 9 9 9 10 10 9 8 8 7 6 7 9 10 11 10 8 6 3 2 0 2 4 6 9 9 10 10 7 4 2 3 5 2 0 1 1 5 8 8
16 15 13 12 11 10 9 9 9 9 9 8 7 7 7 7 7 10 12 11 10 7 4 2 2 4 5 6 8 10 10 10 13 10 7 5 5 2 3 2 1 5 8 8 9
18 17 15 14 12 11 11 10 10 9 7 8 6 6 6 8 11 12 13 12 11 7 5 5 5 7 7 9 12 13 12 13 11 12 8 4 6 11 6 4 9 15 13 11 9
18 18 17 16 14 12 12 11 10 9 9 8 8 7 8 9 10 12 11 11 10 9 8 8 7 7 8 11 14 16 16 16 11 9 7 4 8 8 13 17 16 14 10 11 10
19 19 18 17 16 16 14 15 13 12 11 11 11 10 10 10 11 11 10 11 10 7 8 10 9 9 11 15 17 18 20 17 12 8 7 2 4 5 10 10 11 11 10 4 4
20 20 19 18 17 17 16 16 15 14 14 14 15 15 13 12 11 11 11 11 9 10 10 10 11 12 11 12 15 14 13 11 7 9 5 6 8 3 6 4 7 7 2 2 1
22 21 21 19 18 16 14 16 17 16 15 17 17 16 15 14 13 13 13 12 11 12 11 13 14 9 6 9 11 10 10 6 9 12 6 12 9 9 6 7 5 2 2 4 2
20 22 22 21 19 17 16 15 16 19 19 21 20 19 16 16 15 14 13 12 11 11 12 13 8 6 4 8 9 10 7 4 16 14 9 11 13 8 6 4 6 4 3 7 7
20 22 22 20 21 18 17 17 19 20 23 22 19 16 16 16 16 14 13 11 12 13 14 8 6 4 6 7 6 7 5 9 19 16 11 11 12 9 11 8 9 11 8 4 2
21 22 22 21 21 19 19 18 22 21 22 23 20 18 17 18 18 18 17 15 13 13 12 13 13 10 11 11 9 9 5 9 19 18 13 12 12 13 12 9 12 13 15 13 7
21 22 22 21 21 20 19 20 25 22 23 23 22 20 18 21 18 18 17 16 14 12 12 12 14 12 12 13 13 9 9 6 10 22 21 16 14 11 13 15 18 15 18 21 18
21 22 21 21 21 21 19 23 27 26 26 24 21 19 16 16 15 17 18 18 15 11 9 8 11 12 12 12 14 15 13 11 11 11 17 24 23 22 19 19 22 24 23 25 26
21 21 20 20 21 21 22 27 32 31 27 23 23 23 19 16 14 16 18 17 16 15 11 15 14 13 14 13 14 18 20 19 19 19 18 20 21 25 28 30 30 32 30 30 29
22 21 19 21 21 22 25 31 36 31 29 28 27 26 25 24 18 15 14 10 12 9 12 15 14 14 12 15 18 21 22 24 23 23 24 24 26 27 28 30 32 34 34 36 37
21 19 18 20 21 23 24 29 32 29 28 29 30 29 28 25 22 18 18 17 17 14 15 17 22 23 21 22 23 24 24 27 29 31 31 32 34 35 35 35 36 38 40 41 43
18 17 18 20 21 21 25 25 30 31 23 20 25 31 30 27 28 26 25 23 23 24 23 22 24 26 26 28 28 28 27 27 29 31 33 35 37 39 42 44 46 47 47 48 50
15 17 18 19 22 21 27 30 27 27 22 16 18 20 24 33 34 32 31 30 27 26 25 24 26 25 27 27 28 30 31 30 27 26 28 29 30 30 29 31 36 39 40 40 40
15 17 18 19 21 21 24 25 23 22 21 17 15 19 21 28 36 37 33 29 28 27 26 26 24 24 25 28 29 29 25 24 26 25 24 23 26 28 31 38 39 39 40 40 42
Wind_Direction
234 247 267 279 288 281 298 316 321 315 313 317 315 301 272 270 303 254 257 347 37 82 65 76 117 146 160 161 259 154 80 103 78 57 47 25 36 39 17 5 9 5 11 12 28
239 249 263 273 275 276 280 298 311 312 305 305 302 294 275 248 263 265 267 326 359 60 85 73 51 84 83 109 98 161 117 111 74 68 68 54 56 36 15 11 6 6 7 3 31
242 251 267 273 268 266 268 283 301 305 296 297 294 282 274 235 236 261 267 307 349 29 69 84 77 83 51 56 348 109 104 91 82 61 56 69 50 44 35 4 20 24 22 17 6
246 256 265 268 261 256 261 273 290 296 290 286 283 277 265 244 225 254 259 275 324 56 67 78 80 72 65 57 261 78 48 50 86 87 83 73 45 39 28 21 32 27 28 45 29
254 260 259 256 252 254 259 270 280 281 280 281 276 266 262 246 233 255 259 271 267 117 89 84 75 63 70 76 76 64 47 64 64 60 67 65 61 43 28 10 11 16 27 35 30
247 249 250 252 254 257 262 267 270 267 269 275 275 270 259 246 232 239 256 269 237 129 130 109 87 72 72 70 50 24 21 13 49 40 56 83 69 55 29 24 7 32 28 31 38
245 248 253 259 261 261 259 256 253 253 258 267 271 267 259 241 228 222 244 231 167 154 170 156 108 88 85 77 24 17 18 1 340 29 57 95 89 79 60 27 349 30 41 44 50
243 248 254 253 253 254 249 241 239 241 247 255 260 261 257 233 225 228 223 186 158 170 181 159 110 82 66 75 9 5 356 341 322 311 42 87 89 73 91 39 338 0 20 42 53
238 241 237 244 254 246 234 232 236 242 249 255 254 248 253 235 225 223 193 172 164 171 166 152 114 102 353 12 346 340 350 348 338 287 229 291 102 100 104 85 331 29 29 33 36
229 228 232 237 239 234 230 231 238 242 245 248 254 246 236 230 226 197 181 168 161 176 177 172 133 286 315 332 322 342 0 357 352 326 321 322 113 137 152 148 167 41 59 25 34
228 229 232 234 231 228 225 228 232 236 237 237 241 246 218 189 182 189 170 166 162 176 195 187 217 256 284 316 324 330 342 347 331 335 340 360 338 86 111 100 352 358 24 15 10
233 233 231 230 229 226 223 223 225 225 223 226 227 215 207 187 169 182 176 179 177 188 213 236 253 291 305 307 316 322 312 317 313 311 330 358 331 23 87 86 75 59 40 19 3
231 230 229 229 227 223 222 220 224 225 222 223 220 206 196 191 186 183 194 199 196 205 230 251 264 287 304 300 302 305 298 290 292 290 310 317 56 119 110 117 90 71 48 8 2
234 231 228 230 229 229 225 227 227 225 225 217 220 217 208 203 200 201 213 225 222 227 247 264 279 281 290 292 297 295 292 285 271 255 264 262 143 170 135 141 116 80 69 47 32
234 232 229 228 231 230 229 228 227 226 227 224 218 221 217 215 210 214 222 234 237 240 252 263 269 277 291 297 296 303 291 278 250 181 222 153 183 156 109 134 122 80 45 40 44
234 232 231 230 230 231 227 227 224 220 218 222 222 220 220 221 220 222 227 232 239 246 256 262 274 279 275 293 321 305 286 265 174 171 161 186 185 169 198 161 146 169 101 94 156
233 233 233 231 231 231 228 224 219 219 216 226 227 220 214 220 220 223 224 231 237 248 255 257 262 274 277 283 297 289 288 199 162 159 175 199 205 212 204 200 255 233 205 137 164
231 234 232 232 232 230 227 226 221 220 220 226 230 231 225 220 222 222 225 230 240 245 237 228 219 251 245 226 259 282 276 196 165 164 172 207 217 234 252 250 263 248 237 187 200
235 235 234 232 232 230 227 227 228 218 223 226 231 232 232 230 227 225 229 225 230 240 234 217 223 223 221 229 247 270 247 206 192 183 188 217 227 232 244 254 263 274 266 256 249
238 237 237 237 233 230 227 225 231 222 224 222 225 228 235 234 225 219 224 229 226 228 241 228 229 224 225 240 254 281 271 257 223 210 218 225 231 247 255 254 254 279 262 265 263
240 241 242 242 237 231 223 221 230 227 224 216 219 228 227 230 209 208 218 224 232 230 229 213 233 238 239 260 264 278 292 272 268 253 246 243 244 243 246 253 255 264 268 261 263
246 249 245 242 237 229 217 213 228 222 225 225 222 229 227 218 222 224 221 235 234 231 227 214 225 238 251 265 284 295 295 279 271 275 278 277 262 255 258 259 266 269 273 270 265
252 248 243 236 229 221 217 213 220 223 227 231 231 233 237 246 241 236 226 256 261 255 252 237 257 292 296 287 292 292 289 292 286 276 273 271 275 269 273 274 270 270 273 275 274
249 243 231 228 222 219 220 219 223 232 231 235 236 240 244 247 254 249 255 263 268 271 287 280 271 282 287 292 290 290 288 286 286 286 288 288 289 289 287 283 278 276 275 275 275
236 226 220 218 218 220 222 224 221 229 230 236 248 249 237 238 243 247 257 264 251 258 260 269 266 273 277 279 282 281 284 283 280 282 284 286 283 282 282 282 282 283 282 281 279
221 222 221 218 218 220 222 226 223 233 238 238 248 252 245 238 239 245 255 260 258 251 258 262 270 269 270 272 274 278 280 281 284 284 280 278 280 285 289 292 290 287 285 282 281
221 229 229 223 219 215 221 228 233 239 246 247 256 253 247 239 239 249 253 253 254 260 267 272 273 271 271 272 273 276 284 289 289 286 285 285 285 287 294 299 295 291 288 286 284
Height
5910 5910 5910 5910 5910 5910 5910 5910 5909 5908 5908 5908 5908 5908 5908 5908 5908 5907 5908 5910 5912 5913 5912 5912 5913 5913 5915 5915 5914 5915 5917 5916 5915 5914 5913 5911 5910 5909 5907 5906 5904 5901 5900 5899 5897
5908 5909 5909 5909 5909 5909 5909 5909 5909 5908 5908 5907 5907 5907 5907 5908 5907 5906 5908 5909 5910 5913 5914 5913 5914 5915 5915 5915 5916 5917 5917 5916 5916 5915 5913 5913 5912 5910 5907 5905 5903 5901 5899 5898 5896
5907 5908 5908 5908 5908 5908 5908 5908 5908 5907 5907 5907 5907 5907 5907 5908 5908 5906 5908 5909 5911 5911 5914 5916 5917 5917 5917 5917 5918 5918 5917 5917 5916 5915 5914 5915 5913 5910 5908 5906 5904 5901 5899 5898 5898
5905 5905 5906 5906 5906 5906 5907 5907 5907 5906 5906 5906 5906 5906 5906 5907 5909 5906 5908 5909 5911 5912 5914 5915 5916 5917 5917 5917 5918 5919 5918 5918 5918 5916 5916 5915 5913 5910 5908 5907 5904 5902 5901 5899 5900
5902 5903 5903 5904 5904 5905 5905 5905 5905 5905 5905 5905 5905 5905 5906 5907 5908 5907 5908 5909 5910 5912 5913 5914 5914 5915 5915 5916 5918 5918 5917 5918 5918 5917 5917 5915 5913 5911 5909 5908 5906 5905 5903 5901 5900
5899 5900 5901 5901 5902 5903 5903 5903 5903 5904 5904 5903 5904 5904 5906 5907 5907 5907 5907 5909 5910 5912 5912 5913 5914 5915 5915 5916 5918 5917 5917 5916 5917 5918 5917 5916 5915 5912 5911 5909 5908 5906 5905 5904 5902
5896 5897 5898 5899 5899 5900 5900 5901 5901 5901 5902 5902 5903 5903 5904 5906 5906 5907 5907 5908 5910 5912 5913 5913 5914 5915 5916 5917 5918 5918 5918 5917 5918 5918 5917 5916 5916 5914 5912 5911 5910 5909 5907 5906 5905
5893 5895 5895 5896 5896 5897 5897 5898 5899 5900 5900 5901 5901 5902 5902 5904 5905 5906 5907 5909 5910 5912 5913 5914 5914 5915 5916 5917 5917 5918 5918 5918 5917 5917 5916 5916 5915 5914 5912 5912 5911 5910 5909 5907 5907
5890 5891 5893 5893 5894 5894 5895 5896 5897 5899 5900 5900 5901 5901 5902 5903 5904 5905 5906 5909 5910 5912 5913 5914 5915 5916 5917 5917 5918 5919 5918 5918 5917 5916 5916 5915 5914 5914 5913 5913 5913 5912 5910 5909 5908
5888 5889 5890 5891 5892 5893 5894 5896 5897 5898 5898 5899 5900 5902 5901 5903 5903 5904 5906 5909 5911 5912 5914 5915 5916 5917 5917 5917 5918 5918 5918 5918 5917 5918 5916 5914 5914 5913 5913 5913 5913 5913 5912 5910 5908
5885 5887 5888 5889 5890 5892 5894 5894 5896 5897 5897 5898 5899 5900 5900 5901 5903 5905 5906 5908 5911 5912 5914 5915 5916 5917 5917 5917 5918 5918 5919 5918 5918 5917 5915 5914 5913 5914 5915 5915 5914 5914 5913 5912 5910
5882 5884 5886 5887 5889 5890 5892 5893 5894 5895 5896 5896 5898 5898 5899 5901 5903 5905 5907 5910 5911 5912 5914 5916 5917 5917 5917 5917 5918 5918 5918 5918 5917 5916 5915 5914 5914 5916 5915 5916 5915 5915 5914 5914 5912
5879 5881 5883 5884 5886 5888 5890 5891 5892 5894 5895 5896 5896 5898 5899 5901 5903 5905 5907 5909 5911 5912 5913 5915 5917 5917 5917 5916 5916 5916 5916 5916 5917 5915 5914 5914 5914 5911 5912 5912 5913 5913 5914 5914 5913
5876 5878 5880 5882 5885 5885 5888 5889 5890 5892 5894 5896 5895 5897 5899 5900 5903 5904 5906 5909 5910 5912 5913 5914 5914 5914 5914 5914 5914 5914 5913 5913 5913 5912 5913 5913 5912 5912 5912 5912 5911 5909 5910 5910 5911
5872 5874 5876 5878 5880 5882 5885 5886 5888 5890 5891 5894 5893 5895 5896 5899 5902 5903 5905 5906 5908 5910 5912 5912 5912 5912 5913 5912 5911 5911 5909 5909 5910 5910 5912 5912 5911 5911 5912 5912 5911 5910 5910 5908 5910
5868 5870 5873 5875 5877 5879 5881 5883 5885 5888 5888 5889 5890 5892 5895 5897 5899 5901 5903 5905 5906 5908 5909 5909 5910 5911 5910 5909 5910 5908 5907 5907 5908 5909 5911 5910 5911 5911 5912 5912 5912 5911 5911 5910 5910
5864 5866 5869 5871 5874 5876 5878 5880 5883 5883 5885 5886 5887 5890 5893 5894 5896 5899 5901 5902 5904 5906 5906 5907 5908 5908 5909 5908 5907 5906 5906 5906 5908 5909 5910 5909 5911 5910 5911 5911 5912 5913 5913 5912 5912
5860 5861 5864 5867 5869 5872 5875 5878 5879 5881 5881 5883 5886 5889 5891 5893 5894 5896 5898 5900 5901 5903 5904 5904 5906 5907 5907 5907 5907 5905 5905 5906 5906 5908 5908 5908 5909 5909 5910 5910 5911 5911 5912 5912 5912
5855 5857 5859 5862 5865 5868 5871 5873 5874 5877 5880 5881 5884 5886 5889 5891 5893 5895 5896 5897 5899 5900 5903 5902 5903 5904 5905 5906 5906 5905 5905 5905 5905 5906 5907 5906 5907 5908 5908 5908 5908 5909 5909 5909 5909
5850 5853 5855 5857 5860 5863 5867 5869 5869 5873 5876 5879 5881 5884 5886 5888 5890 5892 5893 5895 5896 5898 5899 5901 5901 5902 5903 5904 5905 5905 5905 5905 5905 5905 5905 5905 5905 5906 5906 5906 5906 5905 5905 5904 5905
5846 5848 5851 5853 5855 5859 5862 5864 5865 5868 5871 5877 5880 5882 5885 5886 5889 5890 5891 5893 5894 5896 5898 5899 5899 5901 5901 5902 5902 5903 5902 5903 5903 5904 5904 5904 5904 5904 5903 5902 5902 5902 5901 5901 5900
5841 5843 5846 5848 5851 5853 5857 5859 5859 5862 5867 5872 5876 5878 5881 5884 5887 5888 5890 5892 5894 5895 5897 5897 5897 5898 5899 5899 5899 5899 5898 5899 5900 5900 5899 5899 5899 5899 5898 5898 5897 5896 5895 5895 5894
5836 5838 5840 5842 5845 5848 5851 5853 5854 5859 5864 5868 5872 5875 5877 5879 5883 5885 5887 5889 5890 5892 5894 5895 5895 5895 5895 5896 5895 5893 5893 5892 5892 5893 5893 5893 5893 5891 5891 5890 5889 5888 5887 5886 5886
5830 5833 5835 5837 5840 5843 5847 5850 5853 5857 5861 5864 5868 5871 5874 5876 5878 5881 5883 5884 5886 5887 5887 5889 5889 5890 5890 5890 5890 5889 5888 5887 5887 5886 5885 5885 5883 5882 5881 5881 5880 5879 5878 5877 5876
5824 5827 5830 5832 5836 5839 5842 5847 5850 5852 5857 5861 5864 5867 5871 5873 5875 5876 5878 5880 5881 5882 5883 5884 5884 5885 5885 5884 5883 5882 5882 5881 5881 5880 5878 5877 5875 5874 5872 5870 5869 5868 5867 5866 5864
5820 5823 5826 5829 5832 5836 5838 5842 5848 5851 5855 5858 5860 5863 5865 5867 5869 5870 5872 5873 5874 5876 5877 5878 5877 5877 5878 5878 5877 5876 5876 5875 5874 5872 5870 5869 5867 5865 5863 5861 5858 5856 5853 5852 5851
5818 5820 5823 5825 5828 5832 5836 5841 5845 5849 5851 5854 5856 5857 5858 5860 5863 5864 5865 5867 5869 5871 5871 5872 5873 5873 5872 5871 5870 5870 5869 5868 5866 5864 5863 5862 5860 5859 5856 5852 5848 5844 5841 5839 5837